| time (UTC) | temp C | wind direction | speed KPH | gust KPH | rain 1hr cm | rain 24hr cm | rain mn cm | humidity % | barometer mb |
| 20260510045039 | 3 | 305 | 3.2 | 0.0 | 0.00 | 0.00 | 0.00 | 75 | 1024.4 |
| 20260510044033 | 4 | 206 | 3.2 | 0.0 | 0.00 | 0.00 | 0.00 | 74 | 1024.2 |
| 20260510043035 | 4 | 299 | 1.6 | 0.0 | 0.00 | 0.00 | 0.00 | 74 | 1023.9 |
| 20260510042029 | 5 | 290 | 4.8 | 0.0 | 0.00 | 0.00 | 0.00 | 73 | 1023.4 |
| 20260510040038 | 6 | 281 | 1.6 | 0.0 | 0.00 | 0.00 | 0.00 | 66 | 1023.2 |
| 20260510035032 | 6 | 299 | 0.0 | 0.0 | 0.00 | 0.00 | 0.00 | 61 | 1022.2 |
| 20260510034034 | 7 | 287 | 0.0 | 0.0 | 0.00 | 0.00 | 0.00 | 52 | 1022.0 |
| 20260510032025 | 8 | 246 | 0.0 | 0.0 | 0.00 | 0.00 | 0.00 | 46 | 1022.2 |
| 20260510031022 | 8 | 328 | 1.6 | 0.0 | 0.00 | 0.00 | 0.00 | 45 | 1021.5 |
| 20260510030023 | 9 | 300 | 6.4 | 0.0 | 0.00 | 0.00 | 0.00 | 44 | 1021.9 |
| 20260510025034 | 10 | 286 | 1.6 | 0.0 | 0.00 | 0.00 | 0.00 | 37 | 1021.6 |
| 20260510024028 | 10 | 289 | 1.6 | 0.0 | 0.00 | 0.00 | 0.00 | 37 | 1021.1 |
| 20260510023022 | 11 | 314 | 3.2 | 0.0 | 0.00 | 0.00 | 0.00 | 35 | 1021.0 |
| 20260510021034 | 11 | 260 | 1.6 | 0.0 | 0.00 | 0.00 | 0.00 | 33 | 1020.4 |
| 20260510020030 | 11 | 355 | 1.6 | 0.0 | 0.00 | 0.00 | 0.00 | 31 | 1020.1 |
| 20260510015022 | 11 | 355 | 0.0 | 0.0 | 0.00 | 0.00 | 0.00 | 30 | 1020.0 |
| 20260510014019 | 11 | 276 | 0.0 | 0.0 | 0.00 | 0.00 | 0.00 | 29 | 1019.7 |
| 20260510011033 | 12 | 276 | 0.0 | 0.0 | 0.00 | 0.00 | 0.00 | 28 | 1019.7 |
| 20260510010028 | 12 | 276 | 0.0 | 0.0 | 0.00 | 0.00 | 0.00 | 26 | 1019.5 |
| 20260510005024 | 13 | 276 | 0.0 | 0.0 | 0.00 | 0.00 | 0.00 | 25 | 1019.7 |
| 20260510003032 | 13 | 26 | 0.0 | 0.0 | 0.00 | 0.00 | 0.00 | 24 | 1019.6 |
| 20260510002034 | 13 | 217 | 1.6 | 0.0 | 0.00 | 0.00 | 0.00 | 23 | 1019.6 |
| 20260510001030 | 13 | 317 | 3.2 | 0.0 | 0.00 | 0.00 | 0.00 | 22 | 1019.7 |
| 20260510000023 | 14 | 287 | 4.8 | 0.0 | 0.00 | 0.00 | 0.00 | 21 | 1019.6 |
| 20260509235038 | 15 | 236 | 3.2 | 0.0 | 0.00 | 0.00 | 0.00 | 20 | 1019.6 |
| 20260509234035 | 15 | 319 | 4.8 | 0.0 | 0.00 | 0.00 | 0.00 | 20 | 1019.7 |
| 20260509233031 | 15 | 283 | 6.4 | 0.0 | 0.00 | 0.00 | 0.00 | 20 | 1019.6 |
| 20260509232028 | 15 | 280 | 3.2 | 0.0 | 0.00 | 0.00 | 0.00 | 20 | 1019.7 |
| 20260509231039 | 15 | 280 | 4.8 | 0.0 | 0.00 | 0.00 | 0.00 | 22 | 1019.8 |
| 20260509230033 | 15 | 232 | 4.8 | 0.0 | 0.00 | 0.00 | 0.00 | 22 | 1019.8 |
| 20260509225031 | 15 | 332 | 4.8 | 0.0 | 0.00 | 0.00 | 0.00 | 21 | 1019.9 |
| 20260509224023 | 15 | 288 | 3.2 | 0.0 | 0.00 | 0.00 | 0.00 | 25 | 1019.7 |
| 20260509223039 | 15 | 267 | 4.8 | 0.0 | 0.00 | 0.00 | 0.00 | 25 | 1019.5 |
| 20260509221028 | 16 | 281 | 3.2 | 0.0 | 0.00 | 0.00 | 0.00 | 25 | 1019.5 |
| 20260509220024 | 16 | 252 | 3.2 | 0.0 | 0.00 | 0.00 | 0.00 | 23 | 1019.5 |
| 20260509215039 | 16 | 292 | 4.8 | 0.0 | 0.00 | 0.00 | 0.00 | 23 | 1019.5 |
| 20260509214032 | 17 | 281 | 1.6 | 0.0 | 0.00 | 0.00 | 0.00 | 24 | 1019.4 |
| 20260509213027 | 16 | 263 | 4.8 | 0.0 | 0.00 | 0.00 | 0.00 | 27 | 1019.7 |
| 20260509212021 | 16 | 328 | 6.4 | 0.0 | 0.00 | 0.00 | 0.00 | 23 | 1019.4 |
| 20260509210040 | 16 | 215 | 3.2 | 0.0 | 0.00 | 0.00 | 0.00 | 26 | 1019.5 |
| 20260509205030 | 16 | 306 | 4.8 | 0.0 | 0.00 | 0.00 | 0.00 | 24 | 1019.7 |
| 20260509204028 | 16 | 271 | 4.8 | 0.0 | 0.00 | 0.00 | 0.00 | 25 | 1019.7 |
| 20260509203026 | 16 | 303 | 3.2 | 0.0 | 0.00 | 0.00 | 0.00 | 25 | 1019.5 |
| 20260509202027 | 16 | 262 | 4.8 | 0.0 | 0.00 | 0.00 | 0.00 | 24 | 1019.6 |
| 20260509201038 | 16 | 303 | 4.8 | 0.0 | 0.00 | 0.00 | 0.00 | 24 | 1020.0 |
| 20260509200032 | 16 | 284 | 4.8 | 0.0 | 0.00 | 0.00 | 0.00 | 24 | 1020.1 |
| 20260509194022 | 16 | 300 | 4.8 | 0.0 | 0.00 | 0.00 | 0.00 | 25 | 1019.7 |
| 20260509193023 | 15 | 279 | 4.8 | 0.0 | 0.00 | 0.00 | 0.00 | 25 | 1019.6 |
| 20260509192036 | 15 | 276 | 3.2 | 0.0 | 0.00 | 0.00 | 0.00 | 27 | 1020.0 |
| 20260509191029 | 16 | 283 | 3.2 | 0.0 | 0.00 | 0.00 | 0.00 | 27 | 1019.9 |
| 20260509190023 | 16 | 306 | 3.2 | 0.0 | 0.00 | 0.00 | 0.00 | 28 | 1019.8 |
| 20260509185035 | 15 | 288 | 1.6 | 0.0 | 0.00 | 0.00 | 0.00 | 27 | 1019.7 |
| 20260509184033 | 15 | 294 | 4.8 | 0.0 | 0.00 | 0.00 | 0.00 | 26 | 1019.9 |
| 20260509183027 | 15 | 53 | 3.2 | 0.0 | 0.00 | 0.00 | 0.00 | 28 | 1019.6 |
| 20260509181036 | 15 | 294 | 3.2 | 0.0 | 0.00 | 0.00 | 0.00 | 31 | 1019.7 |
| 20260509180029 | 15 | 294 | 4.8 | 0.0 | 0.00 | 0.00 | 0.00 | 34 | 1019.9 |
| 20260509175026 | 15 | 302 | 3.2 | 0.0 | 0.00 | 0.00 | 0.00 | 31 | 1020.0 |
| 20260509174022 | 14 | 126 | 4.8 | 0.0 | 0.00 | 0.00 | 0.00 | 32 | 1020.1 |
| 20260509172028 | 13 | 273 | 4.8 | 0.0 | 0.00 | 0.00 | 0.00 | 35 | 1020.0 |
| 20260509171020 | 13 | 131 | 4.8 | 0.0 | 0.00 | 0.00 | 0.00 | 34 | 1020.2 |
| 20260509170021 | 14 | 221 | 3.2 | 0.0 | 0.00 | 0.00 | 0.00 | 35 | 1020.1 |
| 20260509165034 | 14 | 190 | 3.2 | 0.0 | 0.00 | 0.00 | 0.00 | 33 | 1020.0 |
| 20260509164030 | 14 | 279 | 3.2 | 0.0 | 0.00 | 0.00 | 0.00 | 34 | 1019.9 |
| 20260509163023 | 15 | 336 | 1.6 | 0.0 | 0.00 | 0.00 | 0.00 | 33 | 1020.2 |
| 20260509162017 | 14 | 221 | 3.2 | 0.0 | 0.00 | 0.00 | 0.00 | 37 | 1019.9 |
| 20260509161038 | 13 | 325 | 1.6 | 0.0 | 0.00 | 0.00 | 0.00 | 33 | 1019.8 |
| 20260509160034 | 13 | 345 | 1.6 | 0.0 | 0.00 | 0.00 | 0.00 | 35 | 1020.1 |
| 20260509155028 | 13 | 92 | 1.6 | 0.0 | 0.00 | 0.00 | 0.00 | 36 | 1019.4 |
| 20260509154022 | 13 | 302 | 1.6 | 0.0 | 0.00 | 0.00 | 0.00 | 38 | 1019.4 |
| 20260509153022 | 12 | 190 | 1.6 | 0.0 | 0.00 | 0.00 | 0.00 | 37 | 1019.5 |
| 20260509152036 | 13 | 226 | 1.6 | 0.0 | 0.00 | 0.00 | 0.00 | 34 | 1019.6 |
| 20260509151029 | 12 | 13 | 3.2 | 0.0 | 0.00 | 0.00 | 0.00 | 36 | 1019.7 |
| 20260509150023 | 12 | 252 | 3.2 | 0.0 | 0.00 | 0.00 | 0.00 | 36 | 1019.6 |
| 20260509145040 | 12 | 313 | 1.6 | 0.0 | 0.00 | 0.00 | 0.00 | 39 | 1019.6 |
| 20260509144036 | 12 | 240 | 1.6 | 0.0 | 0.00 | 0.00 | 0.00 | 36 | 1019.6 |
| 20260509143027 | 11 | 174 | 1.6 | 0.0 | 0.00 | 0.00 | 0.00 | 38 | 1019.5 |
| 20260509142037 | 11 | 5 | 1.6 | 0.0 | 0.00 | 0.00 | 0.00 | 39 | 1019.5 |
| 20260509141028 | 11 | 288 | 3.2 | 0.0 | 0.00 | 0.00 | 0.00 | 41 | 1019.6 |
| 20260509135033 | 10 | 96 | 4.8 | 0.0 | 0.00 | 0.00 | 0.00 | 43 | 1019.9 |
| 20260509134029 | 10 | 112 | 1.6 | 0.0 | 0.00 | 0.00 | 0.00 | 43 | 1019.8 |
| 20260509133040 | 9 | 14 | 0.0 | 0.0 | 0.00 | 0.00 | 0.00 | 46 | 1019.7 |
| 20260509131025 | 8 | 58 | 0.0 | 0.0 | 0.00 | 0.00 | 0.00 | 49 | 1019.8 |
| 20260509130037 | 7 | 249 | 0.0 | 0.0 | 0.00 | 0.00 | 0.00 | 52 | 1019.9 |
| 20260509125037 | 6 | 265 | 0.0 | 0.0 | 0.00 | 0.00 | 0.00 | 58 | 1019.9 |
| 20260509124033 | 5 | 265 | 0.0 | 0.0 | 0.00 | 0.00 | 0.00 | 59 | 1019.2 |
| 20260509123028 | 4 | 265 | 0.0 | 0.0 | 0.00 | 0.00 | 0.00 | 58 | 1019.9 |
| 20260509122023 | 4 | 154 | 0.0 | 0.0 | 0.00 | 0.00 | 0.00 | 57 | 1019.9 |
| 20260509121027 | 5 | 247 | 0.0 | 0.0 | 0.00 | 0.00 | 0.00 | 58 | 1019.8 |
| 20260509120022 | 5 | 247 | 0.0 | 0.0 | 0.00 | 0.00 | 0.00 | 57 | 1019.5 |
| 20260509115035 | 5 | 247 | 0.0 | 0.0 | 0.00 | 0.00 | 0.00 | 55 | 1019.4 |
| 20260509111018 | 7 | 247 | 0.0 | 0.0 | 0.00 | 0.00 | 0.00 | 52 | 1019.3 |
| 20260509110037 | 7 | 247 | 0.0 | 0.0 | 0.00 | 0.00 | 0.00 | 52 | 1019.4 |
| 20260509105030 | 7 | 247 | 1.6 | 0.0 | 0.00 | 0.00 | 0.00 | 52 | 1019.2 |
| 20260509104025 | 7 | 263 | 1.6 | 0.0 | 0.00 | 0.00 | 0.00 | 53 | 1019.0 |
| 20260509103036 | 6 | 257 | 0.0 | 0.0 | 0.00 | 0.00 | 0.00 | 53 | 1018.9 |
| 20260509102034 | 6 | 258 | 0.0 | 0.0 | 0.00 | 0.00 | 0.00 | 53 | 1019.0 |
| 20260509101028 | 6 | 267 | 1.6 | 0.0 | 0.00 | 0.00 | 0.00 | 53 | 1018.9 |
| 20260509095038 | 7 | 186 | 0.0 | 0.0 | 0.00 | 0.00 | 0.00 | 52 | 1019.0 |
| 20260509094029 | 7 | 235 | 0.0 | 0.0 | 0.00 | 0.00 | 0.00 | 53 | 1019.0 |
| 20260509093025 | 7 | 245 | 0.0 | 0.0 | 0.00 | 0.00 | 0.00 | 54 | 1019.1 |
| 20260509092039 | 7 | 294 | 0.0 | 0.0 | 0.00 | 0.00 | 0.00 | 55 | 1019.0 |
| 20260509090034 | 6 | 250 | 0.0 | 0.0 | 0.00 | 0.00 | 0.00 | 56 | 1018.3 |
| 20260509085027 | 6 | 195 | 0.0 | 0.0 | 0.00 | 0.00 | 0.00 | 57 | 1018.4 |
| 20260509084022 | 6 | 263 | 0.0 | 0.0 | 0.00 | 0.00 | 0.00 | 57 | 1018.4 |
| 20260509083019 | 6 | 263 | 0.0 | 0.0 | 0.00 | 0.00 | 0.00 | 55 | 1018.6 |
| 20260509082035 | 6 | 263 | 0.0 | 0.0 | 0.00 | 0.00 | 0.00 | 54 | 1018.7 |
| 20260509081030 | 7 | 263 | 0.0 | 0.0 | 0.00 | 0.00 | 0.00 | 53 | 1018.8 |
| 20260509080028 | 7 | 263 | 0.0 | 0.0 | 0.00 | 0.00 | 0.00 | 51 | 1018.9 |
| 20260509075020 | 7 | 263 | 0.0 | 0.0 | 0.00 | 0.00 | 0.00 | 51 | 1019.0 |
| 20260509074036 | 7 | 234 | 0.0 | 0.0 | 0.00 | 0.00 | 0.00 | 50 | 1019.1 |
| 20260509073034 | 8 | 234 | 0.0 | 0.0 | 0.00 | 0.00 | 0.00 | 50 | 1019.1 |
| 20260509072029 | 8 | 232 | 1.6 | 0.0 | 0.00 | 0.00 | 0.00 | 49 | 1019.2 |
| 20260509071022 | 8 | 221 | 0.0 | 0.0 | 0.00 | 0.00 | 0.00 | 48 | 1019.3 |
| 20260509070035 | 8 | 259 | 0.0 | 0.0 | 0.00 | 0.00 | 0.00 | 48 | 1019.4 |
| 20260509065033 | 8 | 259 | 0.0 | 0.0 | 0.00 | 0.00 | 0.00 | 48 | 1019.4 |
| 20260509064030 | 8 | 259 | 1.6 | 0.0 | 0.00 | 0.00 | 0.00 | 48 | 1019.5 |
| 20260509063022 | 8 | 290 | 0.0 | 0.0 | 0.00 | 0.00 | 0.00 | 48 | 1019.5 |
| 20260509061033 | 9 | 191 | 0.0 | 0.0 | 0.00 | 0.00 | 0.00 | 47 | 1019.3 |
| 20260509060025 | 9 | 246 | 0.0 | 0.0 | 0.00 | 0.00 | 0.00 | 46 | 1019.3 |
| 20260509055023 | 9 | 246 | 1.6 | 0.0 | 0.00 | 0.00 | 0.00 | 46 | 1019.2 |
| 20260509052027 | 8 | 275 | 0.0 | 0.0 | 0.00 | 0.00 | 0.00 | 48 | 1018.8 |